Find Starlink 34181

NORAD ID: 64144 Int'l Des: 2025-111 Owner: SPXS Country: US Constellation: starlink operational
LEOCIRCULAR

当前视图

正在加载3D地球...

About Starlink 34181

Starlink 34181 (NORAD 64144) is a starlink constellation satellite (v2 mini) launched May 24, 2025 by SPXS of US. It operates in LEO, CIRCULAR orbit with a mass of 575.00 kg.

即将过境

Passes for default location (London). Set your location on the main map for personalized predictions.

高度历史

Loading altitude history...

两行轨道根数

1 64144U 25111X 26263.15143601 .00010851 00000-0 40318-3 0 9993
2 64144 42.9982 59.6655 0001678 271.5249 88.5411 15.27585407 75208
Epoch: Sep 20, 2026 • Age: 32 hours

当前状态

高度 487.2 km
远地点 / 近地点 N/A
速度 7.63 km/s
星下点 42.82°N, 21.01°W
发射日期 May 24, 2025
运行时间 1.3 years
类型 internet

技术详情

分类 Payload
质量 575.00 kg
干质量 530.00 kg
长度 0.30 m
跨度 29.00 m
形状 ? Box + pan
制造商 SPXS
平台类型 Starlink V2MO
阶段状态 In Orbit
所有者/国家 SPXS/US

Most Searched